Wetterdaten: aktuell Dienstag, 02.06.2020 00:31
Datum Zeit Temp. I. Temp. A. Feuchte I. Feuchte A. Luftdruck Regen Wind Richtung Richtung Sonnenschein ET UV Solar Taupunkt Windchill Windben Empfang
02.06.2020 00:31 23,1 C 15,6 C 40 % 54 % 1019,4 hPa 0,0 l/m 0,5 km/h (0 Bft) O-NO 63 0 min 0,000 mm 0,0 UV-I 0 W/m 6,3 C 15,6 C 8,0 km/h (2 Bft) 97,63 %
02.06.2020 00:15 23,2 C 15,8 C 40 % 53 % 1019,5 hPa 0,0 l/m 0,8 km/h (0 Bft) N-NO 28 0 min 0,000 mm 0,0 UV-I 0 W/m 6,2 C 15,8 C 8,0 km/h (2 Bft) 97,38 %
02.06.2020 00:00 23,2 C 15,9 C 40 % 52 % 1019,4 hPa 0,0 l/m 1,4 km/h (1 Bft) N-NO 21 0 min 0,000 mm 0,0 UV-I 0 W/m 6,1 C 15,9 C 8,0 km/h (2 Bft) 99,38 %
01.06.2020 23:46 23,2 C 16,2 C 40 % 51 % 1019,4 hPa 0,0 l/m 0,7 km/h (0 Bft) NO 45 0 min 0,000 mm 0,0 UV-I 0 W/m 6,1 C 16,2 C 9,7 km/h (2 Bft) 100,00 %
01.06.2020 23:30 23,3 C 16,4 C 39 % 51 % 1019,4 hPa 0,0 l/m 1,4 km/h (1 Bft) O 86 0 min 0,000 mm 0,0 UV-I 0 W/m 6,2 C 16,4 C 8,0 km/h (2 Bft) 100,00 %
01.06.2020 23:15 23,3 C 16,4 C 39 % 51 % 1019,4 hPa 0,0 l/m 2,3 km/h (1 Bft) N-NO 23 0 min 0,000 mm 0,0 UV-I 0 W/m 6,2 C 16,4 C 11,3 km/h (2 Bft) 100,00 %
01.06.2020 23:01 23,4 C 16,3 C 39 % 51 % 1019,4 hPa 0,0 l/m 2,2 km/h (1 Bft) NO 36 0 min 0,025 mm 0,0 UV-I 0 W/m 6,1 C 16,3 C 9,7 km/h (2 Bft) 99,74 %
01.06.2020 22:45 23,5 C 16,2 C 39 % 51 % 1019,4 hPa 0,0 l/m 1,2 km/h (1 Bft) N-NO 22 0 min 0,000 mm 0,0 UV-I 0 W/m 6,1 C 16,2 C 6,4 km/h (2 Bft) 99,71 %
01.06.2020 22:30 23,6 C 16,3 C 38 % 53 % 1019,5 hPa 0,0 l/m 0,5 km/h (0 Bft) NO 49 0 min 0,000 mm 0,0 UV-I 0 W/m 6,7 C 16,3 C 4,8 km/h (1 Bft) 100,00 %
01.06.2020 22:15 23,7 C 16,5 C 38 % 53 % 1019,5 hPa 0,0 l/m 0,3 km/h (0 Bft) NO 50 0 min 0,000 mm 0,0 UV-I 0 W/m 6,9 C 16,5 C 3,2 km/h (1 Bft) 98,54 %
01.06.2020 22:00 23,8 C 16,7 C 38 % 54 % 1019,5 hPa 0,0 l/m 0,1 km/h (0 Bft) NO 50 0 min 0,000 mm 0,0 UV-I 0 W/m 7,3 C 16,7 C 1,6 km/h (1 Bft) 98,03 %
01.06.2020 21:45 24,0 C 17,2 C 37 % 54 % 1019,4 hPa 0,0 l/m 0,0 km/h (0 Bft) NO 50 0 min 0,000 mm 0,0 UV-I 0 W/m 7,8 C 17,2 C 1,6 km/h (1 Bft) 97,75 %
01.06.2020 21:30 24,2 C 17,9 C 37 % 52 % 1019,3 hPa 0,0 l/m 0,0 km/h (0 Bft) NO 50 0 min 0,000 mm 0,0 UV-I 1 W/m 7,9 C 17,9 C 0,0 km/h (0 Bft) 97,38 %
01.06.2020 21:15 24,3 C 19,3 C 37 % 48 % 1019,1 hPa 0,0 l/m 0,0 km/h (0 Bft) NO 50 0 min 0,000 mm 0,0 UV-I 8 W/m 8,0 C 19,3 C 1,6 km/h (1 Bft) 96,90 %
01.06.2020 21:00 24,5 C 19,8 C 37 % 46 % 1019,1 hPa 0,0 l/m 0,3 km/h (0 Bft) NO 50 15 min 0,051 mm 0,0 UV-I 17 W/m 7,8 C 19,8 C 4,8 km/h (1 Bft) 100,00 %
01.06.2020 20:45 24,7 C 20,4 C 36 % 45 % 1019,1 hPa 0,0 l/m 0,2 km/h (0 Bft) NO 50 15 min 0,000 mm 0,0 UV-I 34 W/m 8,1 C 20,4 C 3,2 km/h (1 Bft) 99,71 %
01.06.2020 20:30 24,8 C 20,8 C 36 % 45 % 1019,2 hPa 0,0 l/m 0,6 km/h (0 Bft) NO 54 15 min 0,000 mm 0,0 UV-I 57 W/m 8,4 C 20,8 C 6,4 km/h (2 Bft) 100,00 %
01.06.2020 20:15 24,9 C 21,1 C 36 % 43 % 1019,3 hPa 0,0 l/m 1,5 km/h (1 Bft) NO 35 15 min 0,000 mm 0,0 UV-I 86 W/m 8,0 C 21,1 C 8,0 km/h (2 Bft) 100,00 %
01.06.2020 20:00 24,9 C 21,4 C 36 % 42 % 1019,2 hPa 0,0 l/m 2,5 km/h (1 Bft) O 82 15 min 0,152 mm 0,0 UV-I 123 W/m 8,0 C 21,4 C 11,3 km/h (2 Bft) 100,00 %
01.06.2020 19:45 25,0 C 21,5 C 36 % 42 % 1019,3 hPa 0,0 l/m 3,2 km/h (1 Bft) N 10 15 min 0,000 mm 0,1 UV-I 160 W/m 8,0 C 21,5 C 12,9 km/h (3 Bft) 99,00 %
01.06.2020 19:30 24,9 C 21,6 C 36 % 45 % 1019,3 hPa 0,0 l/m 1,3 km/h (1 Bft) NO 44 1 min 0,000 mm 0,5 UV-I 186 W/m 9,2 C 21,6 C 4,8 km/h (1 Bft) 95,83 %
01.06.2020 19:29 24,9 C 21,6 C 36 % 45 % 1019,3 hPa 0,0 l/m 1,9 km/h (1 Bft) NO 46 1 min 0,000 mm 0,5 UV-I 189 W/m 9,2 C 21,6 C 6,4 km/h (2 Bft) 100,00 %
01.06.2020 19:28 24,8 C 21,6 C 36 % 45 % 1019,3 hPa 0,0 l/m 0,1 km/h (0 Bft) SO 125 1 min 0,000 mm 0,5 UV-I 192 W/m 9,2 C 21,6 C 1,6 km/h (1 Bft) 100,00 %
01.06.2020 19:27 24,9 C 21,7 C 36 % 45 % 1019,3 hPa 0,0 l/m 0,2 km/h (0 Bft) SO 125 1 min 0,000 mm 0,5 UV-I 195 W/m 9,2 C 21,7 C 1,6 km/h (1 Bft) 100,00 %
01.06.2020 19:26 24,9 C 21,7 C 36 % 44 % 1019,2 hPa 0,0 l/m 0,0 km/h (0 Bft) NO 34 1 min 0,000 mm 0,5 UV-I 198 W/m 8,9 C 21,7 C 0,0 km/h (0 Bft) 100,00 %
01.06.2020 19:25 24,8 C 21,7 C 36 % 43 % 1019,3 hPa 0,0 l/m 1,4 km/h (1 Bft) NO 34 1 min 0,000 mm 0,5 UV-I 199 W/m 8,6 C 21,7 C 3,2 km/h (1 Bft) 100,00 %
01.06.2020 19:24 24,8 C 21,7 C 36 % 43 % 1019,3 hPa 0,0 l/m 2,1 km/h (1 Bft) N 355 1 min 0,000 mm 0,5 UV-I 202 W/m 8,6 C 21,7 C 4,8 km/h (1 Bft) 100,00 %
01.06.2020 19:23 24,8 C 21,7 C 36 % 43 % 1019,3 hPa 0,0 l/m 6,2 km/h (2 Bft) NO 44 1 min 0,000 mm 0,5 UV-I 205 W/m 8,6 C 21,7 C 12,9 km/h (3 Bft) 91,67 %
01.06.2020 19:22 24,8 C 21,7 C 36 % 43 % 1019,3 hPa 0,0 l/m 1,3 km/h (1 Bft) NW 316 1 min 0,000 mm 0,5 UV-I 207 W/m 8,6 C 21,7 C 8,0 km/h (2 Bft) 100,00 %
01.06.2020 19:21 24,8 C 21,8 C 36 % 43 % 1019,3 hPa 0,0 l/m 0,9 km/h (0 Bft) N-NO 15 1 min 0,000 mm 0,5 UV-I 211 W/m 8,7 C 21,8 C 3,2 km/h (1 Bft) 100,00 %
01.06.2020 19:20 24,8 C 21,8 C 36 % 42 % 1019,3 hPa 0,0 l/m 0,3 km/h (0 Bft) N-NO 15 1 min 0,000 mm 0,5 UV-I 213 W/m 8,3 C 21,8 C 1,6 km/h (1 Bft) 100,00 %
01.06.2020 19:19 24,8 C 21,8 C 36 % 42 % 1019,3 hPa 0,0 l/m 3,0 km/h (1 Bft) N-NO 19 1 min 0,000 mm 0,6 UV-I 216 W/m 8,3 C 21,8 C 8,0 km/h (2 Bft) 100,00 %
01.06.2020 19:18 24,8 C 21,8 C 36 % 41 % 1019,3 hPa 0,0 l/m 3,8 km/h (1 Bft) O-NO 57 1 min 0,000 mm 0,6 UV-I 218 W/m 8,0 C 21,8 C 9,7 km/h (2 Bft) 100,00 %
01.06.2020 19:17 24,8 C 21,8 C 36 % 42 % 1019,3 hPa 0,0 l/m 5,4 km/h (1 Bft) NO 45 1 min 0,000 mm 0,6 UV-I 220 W/m 8,3 C 21,8 C 11,3 km/h (2 Bft) 95,65 %
01.06.2020 19:16 24,8 C 21,8 C 36 % 41 % 1019,2 hPa 0,0 l/m 3,3 km/h (1 Bft) N 359 16 min 0,000 mm 0,6 UV-I 242 W/m 8,0 C 21,8 C 16,1 km/h (3 Bft) 98,69 %
01.06.2020 19:00 24,6 C 22,1 C 36 % 42 % 1019,2 hPa 0,0 l/m 4,4 km/h (1 Bft) O-SO 108 15 min 0,254 mm 0,8 UV-I 281 W/m 8,6 C 22,1 C 16,1 km/h (3 Bft) 97,67 %
01.06.2020 18:45 24,4 C 22,2 C 37 % 43 % 1019,2 hPa 0,0 l/m 4,2 km/h (1 Bft) O 96 15 min 0,000 mm 1,0 UV-I 321 W/m 9,0 C 22,2 C 14,5 km/h (3 Bft) 97,75 %
01.06.2020 18:30 24,1 C 22,5 C 37 % 41 % 1019,3 hPa 0,0 l/m 5,3 km/h (1 Bft) N-NO 15 13 min 0,000 mm 1,1 UV-I 356 W/m 8,6 C 22,5 C 16,1 km/h (3 Bft) 97,08 %
01.06.2020 18:17 23,8 C 22,9 C 37 % 40 % 1019,3 hPa 0,0 l/m 3,9 km/h (1 Bft) N-NW 346 17 min 0,000 mm 1,3 UV-I 394 W/m 8,6 C 22,9 C 16,1 km/h (3 Bft) 99,49 %
01.06.2020 18:00 23,6 C 23,3 C 37 % 39 % 1019,4 hPa 0,0 l/m 5,6 km/h (1 Bft) N-NO 24 14 min 0,356 mm 1,6 UV-I 432 W/m 8,6 C 23,3 C 16,1 km/h (3 Bft) 100,00 %
01.06.2020 17:46 23,6 C 23,4 C 37 % 42 % 1019,5 hPa 0,0 l/m 3,9 km/h (1 Bft) O 81 16 min 0,000 mm 1,9 UV-I 469 W/m 9,7 C 23,4 C 12,9 km/h (3 Bft) 99,73 %
01.06.2020 17:30 23,6 C 23,5 C 37 % 41 % 1019,6 hPa 0,0 l/m 4,9 km/h (1 Bft) N 5 15 min 0,000 mm 2,1 UV-I 506 W/m 9,5 C 23,5 C 16,1 km/h (3 Bft) 100,00 %
01.06.2020 17:15 23,6 C 24,3 C 37 % 40 % 1019,8 hPa 0,0 l/m 4,1 km/h (1 Bft) N-NO 20 15 min 0,000 mm 2,4 UV-I 541 W/m 9,8 C 24,3 C 16,1 km/h (3 Bft) 100,00 %
01.06.2020 17:00 23,7 C 23,8 C 37 % 43 % 1019,9 hPa 0,0 l/m 3,5 km/h (1 Bft) NO 36 15 min 0,432 mm 2,7 UV-I 573 W/m 10,5 C 23,8 C 12,9 km/h (3 Bft) 99,42 %
01.06.2020 16:45 23,7 C 23,4 C 37 % 44 % 1020,0 hPa 0,0 l/m 5,5 km/h (1 Bft) NO 36 15 min 0,000 mm 3,1 UV-I 606 W/m 10,4 C 23,4 C 19,3 km/h (3 Bft) 100,00 %
01.06.2020 16:30 23,7 C 23,5 C 37 % 43 % 1020,3 hPa 0,0 l/m 5,4 km/h (1 Bft) N 354 15 min 0,000 mm 3,4 UV-I 638 W/m 10,2 C 23,5 C 17,7 km/h (3 Bft) 99,42 %
01.06.2020 16:15 23,8 C 23,4 C 37 % 44 % 1020,5 hPa 0,0 l/m 5,6 km/h (1 Bft) NO 34 15 min 0,000 mm 3,7 UV-I 653 W/m 10,4 C 23,4 C 19,3 km/h (3 Bft) 98,04 %
01.06.2020 16:00 23,8 C 23,6 C 37 % 43 % 1020,6 hPa 0,0 l/m 4,7 km/h (1 Bft) N-NO 27 15 min 0,482 mm 4,0 UV-I 692 W/m 10,3 C 23,6 C 22,5 km/h (4 Bft) 97,46 %
01.06.2020 15:45 23,9 C 23,5 C 38 % 44 % 1020,7 hPa 0,0 l/m 4,5 km/h (1 Bft) S 185 15 min 0,000 mm 4,4 UV-I 724 W/m 10,5 C 23,5 C 17,7 km/h (3 Bft) 97,67 %
01.06.2020 15:30 23,9 C 23,4 C 38 % 42 % 1020,7 hPa 0,0 l/m 4,7 km/h (1 Bft) O-NO 71 15 min 0,000 mm 4,7 UV-I 745 W/m 9,7 C 23,4 C 19,3 km/h (3 Bft) 99,44 %
01.06.2020 15:15 23,9 C 22,6 C 38 % 44 % 1020,8 hPa 0,0 l/m 6,2 km/h (2 Bft) N-NO 31 15 min 0,000 mm 5,0 UV-I 764 W/m 9,7 C 22,6 C 17,7 km/h (3 Bft) 100,00 %
01.06.2020 15:00 24,0 C 22,5 C 38 % 46 % 1020,8 hPa 0,0 l/m 5,4 km/h (1 Bft) NO 54 15 min 0,534 mm 5,3 UV-I 783 W/m 10,3 C 22,5 C 22,5 km/h (4 Bft) 100,00 %
01.06.2020 14:45 24,0 C 22,6 C 39 % 42 % 1021,1 hPa 0,0 l/m 6,8 km/h (2 Bft) N 10 15 min 0,000 mm 5,6 UV-I 802 W/m 9,0 C 22,5 C 16,1 km/h (3 Bft) 99,72 %
01.06.2020 14:30 23,9 C 22,6 C 39 % 43 % 1021,0 hPa 0,0 l/m 4,4 km/h (1 Bft) O 98 15 min 0,000 mm 5,8 UV-I 812 W/m 9,4 C 22,6 C 16,1 km/h (3 Bft) 100,00 %
01.06.2020 14:15 23,9 C 22,3 C 38 % 44 % 1021,2 hPa 0,0 l/m 5,4 km/h (1 Bft) NO 36 15 min 0,000 mm 5,9 UV-I 823 W/m 9,5 C 22,3 C 19,3 km/h (3 Bft) 100,00 %
01.06.2020 14:00 23,9 C 22,1 C 37 % 45 % 1021,3 hPa 0,0 l/m 6,7 km/h (2 Bft) NW 325 15 min 0,533 mm 6,1 UV-I 832 W/m 9,6 C 22,0 C 20,9 km/h (4 Bft) 100,00 %
01.06.2020 13:45 23,9 C 22,0 C 37 % 43 % 1021,3 hPa 0,0 l/m 4,9 km/h (1 Bft) NO 38 15 min 0,000 mm 6,2 UV-I 838 W/m 8,8 C 22,0 C 16,1 km/h (3 Bft) 99,44 %
01.06.2020 13:30 23,9 C 21,5 C 37 % 45 % 1021,4 hPa 0,0 l/m 5,6 km/h (1 Bft) N-NO 29 15 min 0,000 mm 6,3 UV-I 844 W/m 9,1 C 21,5 C 20,9 km/h (4 Bft) 97,47 %
01.06.2020 13:15 23,9 C 21,4 C 37 % 48 % 1021,6 hPa 0,0 l/m 5,1 km/h (1 Bft) N 350 15 min 0,000 mm 6,3 UV-I 842 W/m 9,9 C 21,4 C 17,7 km/h (3 Bft) 97,67 %
01.06.2020 13:00 23,9 C 21,1 C 38 % 47 % 1021,6 hPa 0,0 l/m 4,8 km/h (1 Bft) N 358 15 min 0,508 mm 6,3 UV-I 838 W/m 9,3 C 21,1 C 16,1 km/h (3 Bft) 97,75 %
01.06.2020 12:45 23,9 C 20,8 C 38 % 51 % 1021,8 hPa 0,0 l/m 5,1 km/h (1 Bft) NO 43 15 min 0,000 mm 6,2 UV-I 833 W/m 10,3 C 20,8 C 16,1 km/h (3 Bft) 100,00 %
01.06.2020 12:30 23,9 C 20,3 C 38 % 55 % 1021,9 hPa 0,0 l/m 5,1 km/h (1 Bft) N 360 15 min 0,000 mm 6,1 UV-I 821 W/m 11,0 C 20,3 C 16,1 km/h (3 Bft) 99,44 %
01.06.2020 12:15 23,9 C 19,7 C 38 % 57 % 1022,1 hPa 0,0 l/m 3,6 km/h (1 Bft) N-NW 348 15 min 0,000 mm 5,9 UV-I 811 W/m 10,9 C 19,7 C 14,5 km/h (3 Bft) 99,72 %
01.06.2020 12:00 24,0 C 19,2 C 38 % 57 % 1022,1 hPa 0,0 l/m 5,1 km/h (1 Bft) O-NO 73 15 min 0,457 mm 5,7 UV-I 797 W/m 10,5 C 19,2 C 16,1 km/h (3 Bft) 100,00 %
01.06.2020 11:45 24,0 C 18,8 C 39 % 59 % 1022,3 hPa 0,0 l/m 4,3 km/h (1 Bft) N-NO 20 15 min 0,000 mm 5,5 UV-I 780 W/m 10,6 C 18,8 C 14,5 km/h (3 Bft) 99,72 %
01.06.2020 11:30 24,1 C 18,4 C 39 % 60 % 1022,5 hPa 0,0 l/m 4,6 km/h (1 Bft) N-NW 339 15 min 0,000 mm 5,2 UV-I 760 W/m 10,5 C 18,4 C 14,5 km/h (3 Bft) 100,00 %
01.06.2020 11:15 24,1 C 17,8 C 39 % 63 % 1022,7 hPa 0,0 l/m 4,1 km/h (1 Bft) N-NO 19 15 min 0,000 mm 4,9 UV-I 739 W/m 10,7 C 17,8 C 16,1 km/h (3 Bft) 99,44 %
01.06.2020 11:00 24,0 C 17,2 C 39 % 63 % 1022,6 hPa 0,0 l/m 2,7 km/h (1 Bft) N-NO 15 15 min 0,381 mm 4,6 UV-I 713 W/m 10,1 C 17,2 C 9,7 km/h (2 Bft) 97,21 %
01.06.2020 10:45 24,0 C 16,5 C 39 % 64 % 1022,6 hPa 0,0 l/m 3,6 km/h (1 Bft) NW 317 15 min 0,000 mm 4,2 UV-I 685 W/m 9,7 C 16,5 C 11,3 km/h (2 Bft) 97,41 %
01.06.2020 10:30 24,0 C 15,8 C 38 % 66 % 1022,6 hPa 0,0 l/m 3,8 km/h (1 Bft) NW 323 15 min 0,000 mm 3,9 UV-I 656 W/m 9,5 C 15,8 C 11,3 km/h (2 Bft) 98,59 %
01.06.2020 10:15 24,1 C 15,3 C 38 % 66 % 1022,7 hPa 0,0 l/m 3,3 km/h (1 Bft) N 360 15 min 0,000 mm 3,5 UV-I 626 W/m 9,0 C 15,3 C 11,3 km/h (2 Bft) 100,00 %
01.06.2020 10:00 24,1 C 14,8 C 39 % 69 % 1022,6 hPa 0,0 l/m 3,5 km/h (1 Bft) N-NO 21 14 min 0,280 mm 3,2 UV-I 595 W/m 9,2 C 14,8 C 12,9 km/h (3 Bft) 99,70 %
01.06.2020 09:46 24,2 C 14,1 C 38 % 70 % 1022,6 hPa 0,0 l/m 2,5 km/h (1 Bft) NO 46 16 min 0,000 mm 2,9 UV-I 562 W/m 8,7 C 14,1 C 9,7 km/h (2 Bft) 99,73 %
01.06.2020 09:30 24,2 C 13,4 C 38 % 72 % 1022,6 hPa 0,0 l/m 1,3 km/h (1 Bft) N-NO 21 15 min 0,000 mm 2,5 UV-I 528 W/m 8,5 C 13,4 C 9,7 km/h (2 Bft) 100,00 %
01.06.2020 09:15 24,3 C 12,6 C 37 % 75 % 1022,5 hPa 0,0 l/m 2,0 km/h (1 Bft) N 5 15 min 0,000 mm 2,2 UV-I 492 W/m 8,3 C 12,6 C 9,7 km/h (2 Bft) 98,59 %
01.06.2020 09:00 24,3 C 11,9 C 36 % 75 % 1022,5 hPa 0,0 l/m 0,8 km/h (0 Bft) N 5 15 min 0,203 mm 1,9 UV-I 455 W/m 7,6 C 11,9 C 6,4 km/h (2 Bft) 99,14 %
01.06.2020 08:45 24,3 C 11,2 C 36 % 77 % 1022,5 hPa 0,0 l/m 1,6 km/h (1 Bft) N-NW 343 15 min 0,000 mm 1,6 UV-I 420 W/m 7,3 C 11,2 C 6,4 km/h (2 Bft) 97,67 %
01.06.2020 08:30 24,4 C 10,7 C 35 % 79 % 1022,5 hPa 0,0 l/m 1,5 km/h (1 Bft) N-NO 20 15 min 0,000 mm 1,4 UV-I 384 W/m 7,2 C 10,7 C 11,3 km/h (2 Bft) 97,75 %
01.06.2020 08:15 24,6 C 10,3 C 35 % 78 % 1022,5 hPa 0,0 l/m 2,0 km/h (1 Bft) N-NO 15 15 min 0,000 mm 1,0 UV-I 341 W/m 6,6 C 10,3 C 8,0 km/h (2 Bft) 97,18 %
01.06.2020 08:00 24,8 C 9,8 C 34 % 80 % 1022,3 hPa 0,0 l/m 1,6 km/h (1 Bft) N-NO 19 0 min 0,025 mm 0,1 UV-I 50 W/m 6,5 C 9,8 C 8,0 km/h (2 Bft) 97,38 %
01.06.2020 07:45 24,9 C 9,2 C 34 % 83 % 1022,3 hPa 0,0 l/m 1,0 km/h (0 Bft) N 5 0 min 0,000 mm 0,0 UV-I 36 W/m 6,5 C 9,2 C 6,4 km/h (2 Bft) 97,75 %
01.06.2020 07:30 25,1 C 8,6 C 34 % 83 % 1022,2 hPa 0,0 l/m 0,4 km/h (0 Bft) N-NW 341 0 min 0,000 mm 0,0 UV-I 34 W/m 5,9 C 8,6 C 6,4 km/h (2 Bft) 97,18 %
01.06.2020 07:15 25,1 C 8,3 C 35 % 84 % 1022,0 hPa 0,0 l/m 0,5 km/h (0 Bft) N 357 0 min 0,000 mm 0,0 UV-I 32 W/m 5,8 C 8,3 C 4,8 km/h (1 Bft) 98,26 %
01.06.2020 07:00 24,9 C 8,1 C 35 % 84 % 1022,0 hPa 0,0 l/m 0,5 km/h (0 Bft) N 355 0 min 0,026 mm 0,0 UV-I 29 W/m 5,6 C 8,1 C 4,8 km/h (1 Bft) 99,44 %
01.06.2020 06:45 24,7 C 7,7 C 35 % 84 % 1021,9 hPa 0,0 l/m 0,8 km/h (0 Bft) N-NW 343 0 min 0,000 mm 0,0 UV-I 27 W/m 5,2 C 7,7 C 4,8 km/h (1 Bft) 99,15 %
01.06.2020 06:30 24,5 C 7,4 C 35 % 84 % 1021,9 hPa 0,0 l/m 0,2 km/h (0 Bft) N 5 0 min 0,000 mm 0,0 UV-I 25 W/m 4,9 C 7,4 C 3,2 km/h (1 Bft) 99,71 %
01.06.2020 06:15 24,2 C 7,2 C 36 % 84 % 1021,8 hPa 0,0 l/m 0,3 km/h (0 Bft) N 5 0 min 0,000 mm 0,0 UV-I 21 W/m 4,7 C 7,2 C 3,2 km/h (1 Bft) 99,44 %
01.06.2020 06:00 23,7 C 7,1 C 36 % 84 % 1021,8 hPa 0,0 l/m 0,2 km/h (0 Bft) N 5 0 min 0,000 mm 0,0 UV-I 18 W/m 4,6 C 7,1 C 3,2 km/h (1 Bft) 99,72 %
01.06.2020 05:45 23,5 C 7,1 C 36 % 83 % 1021,7 hPa 0,0 l/m 0,0 km/h (0 Bft) N 5 0 min 0,000 mm 0,0 UV-I 14 W/m 4,4 C 7,1 C 1,6 km/h (1 Bft) 99,42 %
01.06.2020 05:30 23,6 C 7,1 C 36 % 82 % 1021,6 hPa 0,0 l/m 0,1 km/h (0 Bft) N 5 0 min 0,000 mm 0,0 UV-I 10 W/m 4,2 C 7,1 C 1,6 km/h (1 Bft) 100,00 %
01.06.2020 05:15 23,7 C 7,2 C 36 % 80 % 1021,5 hPa 0,0 l/m 0,0 km/h (0 Bft) N 5 0 min 0,000 mm 0,0 UV-I 4 W/m 4,0 C 7,2 C 1,6 km/h (1 Bft) 99,71 %
01.06.2020 05:00 23,7 C 7,4 C 36 % 80 % 1021,4 hPa 0,0 l/m 0,0 km/h (0 Bft) N 5 0 min 0,000 mm 0,0 UV-I 0 W/m 4,2 C 7,4 C 0,0 km/h (0 Bft) 99,72 %
01.06.2020 04:45 23,8 C 7,6 C 36 % 80 % 1021,4 hPa 0,0 l/m 0,0 km/h (0 Bft) N 5 0 min 0,000 mm 0,0 UV-I 0 W/m 4,4 C 7,6 C 0,0 km/h (0 Bft) 99,71 %
01.06.2020 04:30 23,9 C 7,8 C 36 % 79 % 1021,4 hPa 0,0 l/m 0,0 km/h (0 Bft) N 5 0 min 0,000 mm 0,0 UV-I 0 W/m 4,4 C 7,8 C 1,6 km/h (1 Bft) 98,31 %
01.06.2020 04:15 24,1 C 8,0 C 36 % 79 % 1021,3 hPa 0,0 l/m 0,1 km/h (0 Bft) N 5 0 min 0,000 mm 0,0 UV-I 0 W/m 4,6 C 8,0 C 3,2 km/h (1 Bft) 97,60 %
01.06.2020 04:00 24,2 C 8,2 C 36 % 78 % 1021,3 hPa 0,0 l/m 0,4 km/h (0 Bft) N 5 0 min 0,000 mm 0,0 UV-I 0 W/m 4,6 C 8,2 C 4,8 km/h (1 Bft) 97,08 %
01.06.2020 03:45 24,2 C 8,5 C 36 % 78 % 1021,4 hPa 0,0 l/m 0,1 km/h (0 Bft) N 360 0 min 0,000 mm 0,0 UV-I 0 W/m 4,9 C 8,5 C 3,2 km/h (1 Bft) 97,47 %
01.06.2020 03:30 24,3 C 8,7 C 36 % 77 % 1021,5 hPa 0,0 l/m 0,1 km/h (0 Bft) N 360 0 min 0,000 mm 0,0 UV-I 0 W/m 4,9 C 8,7 C 3,2 km/h (1 Bft) 98,32 %
01.06.2020 03:15 24,4 C 9,0 C 35 % 77 % 1021,4 hPa 0,0 l/m 0,1 km/h (0 Bft) N 360 0 min 0,000 mm 0,0 UV-I 0 W/m 5,2 C 9,0 C 3,2 km/h (1 Bft) 99,42 %
01.06.2020 03:00 24,5 C 9,2 C 35 % 77 % 1021,5 hPa 0,0 l/m 0,7 km/h (0 Bft) N 360 0 min 0,000 mm 0,0 UV-I 0 W/m 5,4 C 9,2 C 4,8 km/h (1 Bft) 100,00 %
01.06.2020 02:45 24,6 C 9,7 C 35 % 76 % 1021,5 hPa 0,0 l/m 1,1 km/h (1 Bft) N 5 0 min 0,000 mm 0,0 UV-I 0 W/m 5,7 C 9,7 C 9,7 km/h (2 Bft) 99,71 %
01.06.2020 02:30 24,6 C 10,0 C 35 % 75 % 1021,5 hPa 0,0 l/m 1,1 km/h (1 Bft) N 360 0 min 0,000 mm 0,0 UV-I 0 W/m 5,8 C 10,0 C 8,0 km/h (2 Bft) 100,00 %
01.06.2020 02:15 24,6 C 10,3 C 36 % 75 % 1021,6 hPa 0,0 l/m 1,7 km/h (1 Bft) N-NO 15 0 min 0,000 mm 0,0 UV-I 0 W/m 6,1 C 10,3 C 8,0 km/h (2 Bft) 100,00 %
01.06.2020 02:00 24,6 C 10,6 C 36 % 75 % 1021,6 hPa 0,0 l/m 1,6 km/h (1 Bft) N-NW 341 0 min 0,000 mm 0,0 UV-I 0 W/m 6,4 C 10,6 C 8,0 km/h (2 Bft) 99,71 %
01.06.2020 01:45 24,4 C 10,8 C 36 % 75 % 1021,5 hPa 0,0 l/m 0,7 km/h (0 Bft) N 354 0 min 0,000 mm 0,0 UV-I 0 W/m 6,5 C 10,8 C 6,4 km/h (2 Bft) 99,72 %
01.06.2020 01:30 24,2 C 11,0 C 36 % 74 % 1021,5 hPa 0,0 l/m 3,0 km/h (1 Bft) N 1 0 min 0,000 mm 0,0 UV-I 0 W/m 6,5 C 11,0 C 11,3 km/h (2 Bft) 98,83 %
01.06.2020 01:15 23,9 C 11,4 C 37 % 73 % 1021,4 hPa 0,0 l/m 3,2 km/h (1 Bft) O-NO 62 0 min 0,000 mm 0,0 UV-I 0 W/m 6,7 C 11,4 C 12,9 km/h (3 Bft) 97,49 %
01.06.2020 01:00 23,4 C 11,5 C 37 % 73 % 1021,3 hPa 0,0 l/m 2,3 km/h (1 Bft) N-NW 336 0 min 0,025 mm 0,0 UV-I 0 W/m 6,8 C 11,5 C 9,7 km/h (2 Bft) 97,75 %
_ Min-Zeit 00:31 05:30 07:30 18:00 20:45 - 04:30 - - - - - - 05:15 05:30 04:45 19:23
Minimum _ 23,1 C 7,1 C 34 % 39 % 1019,1 hPa - 0,0 km/h (0 Bft) - - - - - - 4,0 C 7,1 C 0,0 km/h (0 Bft) 91,67 %
_ Max-Zeit 07:15 17:15 23:46 06:00 10:15 01:00 14:45 - - 18:17 15:00 13:00 13:30 12:30 17:15 15:00 02:15
Maximum _ 25,1 C 24,3 C 40 % 84 % 1022,7 hPa 0,0 l/m 6,8 km/h
N (2 Bft)
- - 17 min 0,534 mm 6,3 UV-I 844 W/m 11,0 C 24,3 C 22,5 km/h
N (4 Bft)
100,00 %
Durchschnitt _ 24,1 C 15,9 C 37 % 60 % 1020,9 hPa #0,0 l/m 2,4 km/h (1 Bft) N-NO - #0 min. #0,000 mm 0,0 UV-I 0 W/m 7,7 C 15,9 C 10,1 km/h (2 Bft) 98,95 %